Find Starlink 33545

NORAD ID: 62101 Int'l Des: 2024-220 Owner: SPXS Country: US Constellation: starlink operational
LEOCIRCULAR

当前视图

正在加载3D地球...

About Starlink 33545

Starlink 33545 (NORAD 62101) is a starlink constellation satellite (v2 mini) launched Nov 25, 2024 by SPXS of US. It operates in LEO, CIRCULAR orbit with a mass of 530.00 kg.

关于 Starlink 33545

正在加载描述...

即将过境

Passes for default location (London). Set your location on the main map for personalized predictions.

高度历史

Loading altitude history...

两行轨道根数

1 62101U 24220P 26171.21250785 .00014562 00000-0 53713-3 0 9997
2 62101 43.0088 346.3013 0003954 273.8404 86.1995 15.27607838 88702
Epoch: Jun 20, 2026 • Age: 44 hours

当前状态

高度 481.9 km
速度 7.63 km/s
星下点 -0.18°S, 49.97°E
发射日期 Nov 25, 2024
运行时间 1.5 years
类型 internet

技术详情

分类 Payload
质量 530.00 kg
干质量 500.00 kg
总质量 530.00 kg
长度 0.30 m
直径 4.10 m
跨度 29.00 m
形状 Box + pan
制造商 SPXS
平台类型 Starlink V2MO
阶段状态 In Orbit
所有者/国家 SPXS/US

Most Searched